Погода в Лугах

Россия / Новгородская область     58°55′43″N   32°05′46″E
темп.,
°C
ветер,
м/с
пор.,
м/с
влажн.,
%
обл.,
%
осадки,
мм/ч
давл.,
гПа
погр.,
м
29 мая, вс
вс2900:00+6зюз24975 0.0 100187
03:00+5зюз269817 0.0 1002139
06:00+6зюз299674 0.0 1003279
09:00+11зюз467779 0.0 1004849
12:00+14зюз465695 0.1 10061659
15:00+15з465193 0.3 10071828
18:00+14зюз366255 0.1 1008924
21:00+10зюз268898 0.3 1010150
30 мая, пн
пн3000:00+8зюз259522 0.0 1012108
03:00+6зюз269724 0.0 1013114
06:00+8юз27865 0.0 1015184
09:00+14зюз36569 0.0 1015761
12:00+18зюз34393 0.0 10161716
15:00+20юз333635 0.0 10152366
18:00+19ююз2241100 0.0 10151215
21:00+15ю246570 0.0 101668
31 мая, вт
вт3100:00+10юв228153 0.0 101739
03:00+10вюв268573 0.0 1016123
06:00+12вюв41278100 0.0 1015490
09:00+11вюв41291100 0.8 1015739
12:00+13юв4888100 0.1 1015882
15:00+17ююв476898 0.3 10151373
18:00+18ююв4658100 0.3 10141370
21:00+13ю1179100 0.6 101620
1 июня, ср
ср100:00+10ююв26880 0.0 1016112
03:00+8ю310970 0.0 1018247
06:00+9ююз39894 0.0 1018386
09:00+15ююз46593 0.0 10191006
12:00+18ююз46452 0.0 10191590
15:00+20ююз463999 0.0 10192336
18:00+19юз354781 0.0 10181292
21:00+15вюв2269100 0.0 101813
2 июня, чт
чт200:00+14в2662100 0.0 1017125
03:00+14юв3968100 0.0 1015257
06:00+14юв41275100 0.1 1014406
09:00+13юв41292100 1.5 1013765
12:00+16ююв6118248 0.6 10121007
15:00+19ююз61056100 0.9 10111799
18:00+17ююз585752 0.0 10121369
21:00+14юз3872100 0.0 1011372